EW7191 Weather Reports


Display with metric or nautical units.
time (UTC)temp
F
wind
direction
speed
MPH
gust
MPH
rain 1hr
in
rain 24hr
in
rain mn
in
humidity
%
barometer
mb
20260903041516 54 98 0.0 1.0 0.00 0.00 0.00 92 1018.7
20260903040013 55 330 0.0 0.0 0.00 0.00 0.00 93 1018.4
20260903034513 56 330 0.0 0.0 0.00 0.00 0.00 94 1018.2
20260903033014 56 77 0.0 0.0 0.00 0.00 0.00 94 1017.8
20260903031511 56 77 0.0 0.0 0.00 0.00 0.00 94 1017.5
20260903030012 56 77 0.0 0.0 0.00 0.00 0.00 94 1017.4
20260903024511 57 77 0.0 0.0 0.00 0.00 0.00 94 1017.3
20260903023010 57 77 0.0 0.0 0.00 0.00 0.00 94 1017.3
20260903021513 57 80 0.0 0.0 0.00 0.00 0.00 94 1017.4
20260903020008 57 80 0.0 0.0 0.00 0.00 0.00 94 1017.5
20260903014508 57 138 0.0 0.0 0.00 0.00 0.00 94 1017.3
20260903013008 56 47 0.0 0.0 0.00 0.00 0.00 94 1017.3
20260903011507 56 47 0.0 0.0 0.00 0.00 0.00 93 1017.1
20260903010006 56 47 0.0 1.0 0.00 0.00 0.00 93 1017.0
20260903004506 56 70 0.0 0.0 0.00 0.00 0.00 93 1016.9
20260903003006 56 210 0.0 0.0 0.00 0.00 0.00 93 1016.7
20260903001504 56 26 0.0 2.0 0.00 0.00 0.00 92 1016.4
20260903000004 56 136 4.0 11.0 0.00 0.00 0.00 92 1016.2
20260902234510 56 80 0.0 0.0 0.00 0.00 0.00 92 1016.7
20260902233003 56 121 1.0 7.0 0.00 0.00 0.00 92 1016.7
20260902231502 56 107 0.0 6.0 0.00 0.00 0.00 93 1016.8
20260902230001 56 78 0.0 0.0 0.00 0.00 0.00 92 1016.9
20260902224504 56 92 0.0 0.0 0.00 0.00 0.00 91 1017.1
20260902223106 56 92 0.0 0.0 0.00 0.00 0.00 92 1017.0
20260902221700 56 79 0.0 0.0 0.00 0.00 0.00 91 1016.7
20260902220059 56 79 0.0 0.0 0.00 0.00 0.00 91 1016.7
20260902214559 56 70 0.0 0.0 0.00 0.00 0.00 91 1016.7
20260902213059 57 70 0.0 0.0 0.00 0.00 0.00 91 1016.9
20260902211557 57 70 0.0 0.0 0.00 0.00 0.00 91 1016.7
20260902210056 56 68 0.0 0.0 0.00 0.00 0.00 90 1016.7
20260902204556 56 269 0.0 0.0 0.00 0.00 0.00 90 1016.6
20260902203056 56 269 0.0 1.0 0.00 0.00 0.00 89 1016.6
20260902201604 57 146 0.0 0.0 0.00 0.00 0.00 89 1016.7
20260902200054 57 255 0.0 0.0 0.00 0.00 0.00 88 1016.7
20260902194556 57 322 0.0 1.0 0.00 0.00 0.00 88 1016.8
20260902193058 57 54 0.0 0.0 0.00 0.00 0.00 88 1016.9
20260902191554 57 32 0.0 1.0 0.00 0.00 0.00 88 1016.8
20260902190052 58 98 0.0 0.0 0.00 0.00 0.00 87 1016.6
20260902184556 58 295 0.0 0.0 0.00 0.00 0.00 88 1016.8
20260902183052 57 295 0.0 0.0 0.00 0.00 0.00 87 1016.8
20260902181555 57 66 0.0 0.0 0.00 0.00 0.00 87 1016.8
20260902180050 57 105 0.0 0.0 0.00 0.00 0.00 85 1016.7
20260902174550 57 103 0.0 1.0 0.00 0.00 0.00 86 1016.5
20260902173050 57 71 1.0 6.0 0.00 0.00 0.00 86 1016.5
20260902171603 57 90 0.0 0.0 0.00 0.00 0.00 90 1016.2
20260902170048 56 56 0.0 1.0 0.00 0.00 0.00 89 1016.2
20260902164546 56 176 0.0 0.0 0.00 0.00 0.00 89 1016.0
20260902163047 56 89 0.0 0.0 0.00 0.00 0.00 89 1016.1
20260902161545 56 89 0.0 0.0 0.00 0.00 0.00 88 1016.1
20260902160053 56 89 0.0 0.0 0.00 0.00 0.00 87 1016.0
20260902154542 56 89 0.0 0.0 0.00 0.00 0.00 87 1016.2
20260902153041 56 89 0.0 0.0 0.00 0.00 0.00 85 1016.4
20260902151540 56 89 0.0 0.0 0.00 0.00 0.00 83 1016.5
20260902150038 56 89 0.0 0.0 0.00 0.00 0.00 80 1016.5
20260902144540 57 89 0.0 0.0 0.00 0.00 0.00 77 1016.4
20260902143042 57 89 0.0 0.0 0.00 0.00 0.00 73 1016.4
20260902141535 57 87 0.0 0.0 0.00 0.00 0.00 73 1016.4
20260902140037 57 89 0.0 0.0 0.00 0.00 0.00 72 1016.5
20260902134538 57 89 0.0 0.0 0.00 0.00 0.00 72 1016.6
20260902133038 58 89 0.0 0.0 0.00 0.00 0.00 71 1016.7
20260902131535 58 89 0.0 0.0 0.00 0.00 0.00 70 1016.7
20260902130029 58 68 0.0 7.0 0.00 0.00 0.00 70 1016.8
20260902124528 57 136 0.0 0.0 0.00 0.00 0.00 72 1017.0
20260902123028 57 136 0.0 0.0 0.00 0.00 0.00 72 1017.1
20260902121526 58 141 0.0 0.0 0.00 0.00 0.00 71 1017.1
20260902120030 58 183 0.0 0.0 0.00 0.00 0.00 71 1017.1
20260902114523 58 183 0.0 0.0 0.00 0.00 0.00 70 1017.2
20260902113023 58 100 0.0 0.0 0.00 0.00 0.00 70 1017.4
20260902111536 59 88 0.0 2.0 0.00 0.00 0.00 68 1017.6
20260902110045 58 51 0.0 0.0 0.00 0.00 0.00 69 1017.8
20260902104522 59 50 0.0 0.0 0.00 0.00 0.00 69 1018.1
20260902103015 58 135 0.0 0.0 0.00 0.00 0.00 69 1018.1
20260902101513 58 60 0.0 0.0 0.00 0.00 0.00 69 1018.3
20260902100014 58 86 0.0 0.0 0.00 0.00 0.00 70 1018.3
20260902094510 58 118 0.0 0.0 0.00 0.00 0.00 70 1018.5
20260902093009 58 124 0.0 0.0 0.00 0.00 0.00 69 1018.7
20260902091509 59 125 0.0 0.0 0.00 0.00 0.00 68 1018.7
20260902090006 59 91 0.0 0.0 0.00 0.00 0.00 69 1018.8
20260902084505 59 188 0.0 0.0 0.00 0.00 0.00 68 1018.9
20260902083004 59 328 0.0 0.0 0.00 0.00 0.00 69 1019.1
20260902081603 59 77 0.0 1.0 0.00 0.00 0.00 70 1019.1
20260902080112 57 178 0.0 0.0 0.00 0.00 0.00 72 1019.0
20260902074552 56 105 0.0 0.0 0.00 0.00 0.00 74 1018.9
20260902073048 55 108 0.0 1.0 0.00 0.00 0.00 76 1019.0
20260902071546 54 104 0.0 0.0 0.00 0.00 0.00 77 1018.9
20260902070043 54 89 0.0 0.0 0.00 0.00 0.00 75 1018.9
20260902064544 55 89 0.0 0.0 0.00 0.00 0.00 75 1018.9
20260902063043 55 87 0.0 1.0 0.00 0.00 0.00 73 1019.0
20260902060048 57 103 0.0 1.0 0.00 0.00 0.00 72 1019.1
20260902054547 56 99 0.0 0.0 0.00 0.00 0.00 71 1019.4
20260902053042 56 99 0.0 0.0 0.00 0.00 0.00 69 1019.3
20260902051544 57 143 0.0 0.0 0.00 0.00 0.00 66 1019.4
20260902050040 59 190 0.0 2.0 0.00 0.00 0.00 65 1019.3
20260902044542 59 121 0.0 0.0 0.00 0.00 0.00 63 1019.5
20260902043044 59 171 1.0 6.0 0.00 0.00 0.00 64 1019.5